When you browse on this site, cookies collect data to enhance your experience and personalize the content and advertising you see.
Visit our Privacy Policy to learn more. By continuing to use the site, you agree to this use of cookies and data.

Hourly Weather Loon op Zand

Today, 26 September, Saturday

Time Temperature Precipitation Wind Pressure Humidity
00:00 +9°C° 0 mm 5 mps 745 mmHg 92%
01:00 +9°C° 0.1 mm 5 mps 745 mmHg 92%
02:00 +9°C° 0.1 mm 5 mps 745 mmHg 91%
03:00 +9°C° 0.1 mm 5 mps 745 mmHg 91%
04:00 +9°C° 0.1 mm 5 mps 746 mmHg 90%
05:00 +10°C° 0.1 mm 4 mps 746 mmHg 90%
06:00 +8°C° 0.1 mm 4 mps 747 mmHg 90%
07:00 +11°C° 0.1 mm 4 mps 747 mmHg 85%
08:00 +12°C° 0.1 mm 3 mps 748 mmHg 81%
09:00 +13°C° 0.1 mm 3 mps 748 mmHg 76%
10:00 +14°C° 0.1 mm 3 mps 748 mmHg 70%
11:00 +16°C° 0.1 mm 3 mps 748 mmHg 64%
12:00 +17°C° 0.1 mm 3 mps 748 mmHg 58%
13:00 +17°C° 0.1 mm 4 mps 749 mmHg 59%
14:00 +17°C° 0.1 mm 4 mps 749 mmHg 60%
15:00 +17°C° 0.1 mm 4 mps 749 mmHg 60%
16:00 +15°C° 0 mm 4 mps 749 mmHg 66%
17:00 +14°C° 0 mm 3 mps 749 mmHg 72%
18:00 +14°C° 0 mm 2 mps 749 mmHg 78%
19:00 +12°C° 1.2 mm 3 mps 749 mmHg 83%
20:00 +12°C° 1.2 mm 3 mps 749 mmHg 89%
21:00 +12°C° 1.2 mm 4 mps 749 mmHg 94%
22:00 +12°C° 1.9 mm 5 mps 748 mmHg 94%
23:00 +13°C° 1.9 mm 5 mps 748 mmHg 94%

Tomorrow, 27 September, Sunday

Time Temperature Precipitation Wind Pressure Humidity
00:00 +13°C° 1.9 mm 6 mps 747 mmHg 93%
01:00 +12°C° 1.4 mm 7 mps 747 mmHg 93%
02:00 +14°C° 1.4 mm 7 mps 746 mmHg 93%
03:00 +15°C° 1.4 mm 8 mps 746 mmHg 93%
04:00 +14°C° 0.2 mm 7 mps 746 mmHg 92%
05:00 +14°C° 0.2 mm 6 mps 747 mmHg 92%
06:00 +14°C° 0.2 mm 5 mps 747 mmHg 92%
07:00 +14°C° 0 mm 5 mps 748 mmHg 89%
08:00 +14°C° 0 mm 4 mps 749 mmHg 86%
09:00 +14°C° 0 mm 4 mps 750 mmHg 82%
10:00 +16°C° 0 mm 3 mps 750 mmHg 77%
11:00 +17°C° 0 mm 3 mps 751 mmHg 72%
12:00 +18°C° 0 mm 3 mps 751 mmHg 67%
13:00 +17°C° 0 mm 2 mps 752 mmHg 69%
14:00 +17°C° 0 mm 2 mps 752 mmHg 71%
15:00 +17°C° 0 mm 2 mps 753 mmHg 73%
16:00 +16°C° 0 mm 2 mps 753 mmHg 75%
17:00 +16°C° 0 mm 2 mps 753 mmHg 77%
18:00 +15°C° 0 mm 2 mps 753 mmHg 79%
19:00 +15°C° 0 mm 1 mps 754 mmHg 80%
20:00 +15°C° 0 mm 1 mps 754 mmHg 82%
21:00 +15°C° 0 mm 1 mps 754 mmHg 83%
22:00 +15°C° 0.2 mm 1 mps 754 mmHg 85%
23:00 +15°C° 0.2 mm 1 mps 754 mmHg 88%

Day after tomorrow, 28 September, Monday

Time Temperature Precipitation Wind Pressure Humidity
00:00 +14°C° 0.2 mm 2 mps 754 mmHg 91%
01:00 +15°C° 0 mm 2 mps 754 mmHg 92%
02:00 +15°C° 0 mm 2 mps 754 mmHg 93%
03:00 +15°C° 0 mm 2 mps 754 mmHg 94%
04:00 +15°C° 0 mm 2 mps 754 mmHg 95%
05:00 +16°C° 0 mm 2 mps 754 mmHg 96%
06:00 +16°C° 0 mm 2 mps 754 mmHg 97%
07:00 +17°C° 0 mm 2 mps 755 mmHg 95%
08:00 +17°C° 0 mm 2 mps 755 mmHg 92%
09:00 +18°C° 0 mm 2 mps 755 mmHg 89%
10:00 +18°C° 0 mm 2 mps 755 mmHg 87%
11:00 +19°C° 0 mm 2 mps 755 mmHg 85%
12:00 +19°C° 0 mm 3 mps 755 mmHg 83%
13:00 +19°C° 0.1 mm 3 mps 755 mmHg 84%
14:00 +19°C° 0.1 mm 3 mps 755 mmHg 85%
15:00 +19°C° 0.1 mm 3 mps 755 mmHg 86%
16:00 +18°C° 0 mm 3 mps 755 mmHg 88%
17:00 +18°C° 0 mm 3 mps 756 mmHg 90%
18:00 +17°C° 0 mm 4 mps 756 mmHg 92%
19:00 +17°C° 0 mm 3 mps 756 mmHg 92%
20:00 +17°C° 0 mm 3 mps 757 mmHg 92%
21:00 +17°C° 0 mm 3 mps 757 mmHg 93%
22:00 +17°C° 0.1 mm 3 mps 757 mmHg 93%
23:00 +16°C° 0.1 mm 3 mps 758 mmHg 93%

29 September, Tuesday

Time Temperature Precipitation Wind Pressure Humidity
00:00 +16°C° 0.1 mm 3 mps 758 mmHg 93%
01:00 +16°C° 0.1 mm 3 mps 758 mmHg 91%
02:00 +16°C° 0.1 mm 3 mps 758 mmHg 89%
03:00 +15°C° 0.1 mm 4 mps 758 mmHg 87%
04:00 +14°C° 0.1 mm 3 mps 759 mmHg 85%
05:00 +13°C° 0.1 mm 3 mps 759 mmHg 83%
06:00 +12°C° 0.1 mm 3 mps 759 mmHg 81%
07:00 +14°C° 0 mm 3 mps 759 mmHg 78%
08:00 +16°C° 0 mm 3 mps 760 mmHg 74%
09:00 +17°C° 0 mm 3 mps 760 mmHg 71%
10:00 +18°C° 0 mm 3 mps 760 mmHg 69%
11:00 +19°C° 0 mm 4 mps 760 mmHg 67%
12:00 +20°C° 0 mm 4 mps 760 mmHg 65%
13:00 +20°C° 0.2 mm 3 mps 760 mmHg 67%
14:00 +20°C° 0.2 mm 3 mps 760 mmHg 70%
15:00 +20°C° 0.2 mm 2 mps 760 mmHg 73%
16:00 +18°C° 0.4 mm 2 mps 760 mmHg 77%
17:00 +18°C° 0.4 mm 1 mps 760 mmHg 82%
18:00 +16°C° 0.4 mm 1 mps 760 mmHg 86%
19:00 +15°C° 0 mm 1 mps 761 mmHg 88%
20:00 +15°C° 0 mm 2 mps 761 mmHg 89%
21:00 +14°C° 0 mm 2 mps 761 mmHg 91%
22:00 +14°C° 0 mm 2 mps 761 mmHg 91%
23:00 +13°C° 0 mm 2 mps 760 mmHg 91%

30 September, Wednesday

Time Temperature Precipitation Wind Pressure Humidity
00:00 +11°C° 0 mm 3 mps 760 mmHg 92%
01:00 +11°C° 0 mm 3 mps 760 mmHg 92%
02:00 +11°C° 0 mm 3 mps 760 mmHg 93%
03:00 +10°C° 0 mm 3 mps 760 mmHg 93%
04:00 +10°C° 0 mm 3 mps 760 mmHg 93%
05:00 +10°C° 0 mm 3 mps 760 mmHg 93%
06:00 +10°C° 0 mm 2 mps 760 mmHg 93%
07:00 +12°C° 0 mm 2 mps 760 mmHg 89%
08:00 +14°C° 0 mm 2 mps 760 mmHg 85%
09:00 +14°C° 0 mm 3 mps 760 mmHg 81%
10:00 +16°C° 0 mm 3 mps 760 mmHg 76%
11:00 +17°C° 0 mm 3 mps 760 mmHg 70%
12:00 +18°C° 0 mm 3 mps 759 mmHg 65%
13:00 +18°C° 0 mm 3 mps 759 mmHg 66%
14:00 +17°C° 0 mm 3 mps 759 mmHg 68%
15:00 +17°C° 0 mm 3 mps 758 mmHg 69%
16:00 +16°C° 0 mm 2 mps 758 mmHg 74%
17:00 +15°C° 0 mm 2 mps 758 mmHg 79%
18:00 +14°C° 0 mm 2 mps 758 mmHg 83%
19:00 +14°C° 0 mm 2 mps 758 mmHg 87%
20:00 +14°C° 0 mm 2 mps 757 mmHg 90%
21:00 +14°C° 0 mm 2 mps 757 mmHg 93%
22:00 +14°C° 0 mm 2 mps 757 mmHg 94%
23:00 +14°C° 0 mm 2 mps 756 mmHg 94%

1 October, Thursday

Time Temperature Precipitation Wind Pressure Humidity
00:00 +13°C° 0 mm 3 mps 755 mmHg 95%
01:00 +13°C° 0 mm 3 mps 755 mmHg 94%
02:00 +13°C° 0 mm 3 mps 754 mmHg 93%
03:00 +13°C° 0 mm 3 mps 754 mmHg 92%
04:00 +13°C° 0 mm 3 mps 753 mmHg 93%
05:00 +13°C° 0 mm 3 mps 753 mmHg 93%
06:00 +13°C° 0 mm 3 mps 753 mmHg 93%
07:00 +14°C° 0 mm 3 mps 752 mmHg 87%
08:00 +15°C° 0 mm 4 mps 752 mmHg 80%
09:00 +18°C° 0 mm 4 mps 752 mmHg 73%
10:00 +19°C° 0 mm 4 mps 751 mmHg 69%
11:00 +20°C° 0 mm 4 mps 751 mmHg 65%
12:00 +21°C° 0 mm 5 mps 750 mmHg 61%
13:00 +21°C° 0.2 mm 4 mps 750 mmHg 63%
14:00 +20°C° 0.2 mm 4 mps 749 mmHg 64%
15:00 +20°C° 0.2 mm 4 mps 749 mmHg 65%
16:00 +19°C° 0.1 mm 4 mps 748 mmHg 70%
17:00 +17°C° 0.1 mm 3 mps 748 mmHg 75%
18:00 +16°C° 0.1 mm 3 mps 748 mmHg 80%
19:00 +14°C° 0 mm 3 mps 748 mmHg 83%
20:00 +14°C° 0 mm 3 mps 747 mmHg 85%
21:00 +13°C° 0 mm 4 mps 747 mmHg 88%
22:00 +13°C° 0 mm 4 mps 746 mmHg 87%
23:00 +13°C° 0 mm 4 mps 746 mmHg 86%
Show more